QPF
0.00 0.00 0.00 0.00 0.01 0.02 0.04 0.03 0.00 0.00 0.00 0.00 0.00 0.00 0.00 0.00 0.00 0.00 0.01 0.01 0.00 0.00 0.03 0.06 0.08 0.04 0.00 0.00 0.00 0.00 0.00 0.00 0.00 0.00 0.00 0.00 0.00 0.00 0.00 0.00 0.00 0.00 0.00 0.00 0.00 0.00 0.00 0.00 0.02
0.00 0.00 0.00 0.00 0.00 0.04 0.02 0.01 0.00 0.00 0.00 0.00 0.00 0.00 0.00 0.00 0.00 0.00 0.01 0.00 0.00 0.00 0.00 0.03 0.03 0.02 0.00 0.00 0.00 0.00 0.00 0.00 0.00 0.00 0.00 0.00 0.00 0.00 0.00 0.00 0.00 0.00 0.00 0.00 0.00 0.00 0.00 0.00 0.02
0.00 0.01 0.00 0.00 0.00 0.02 0.01 0.00 0.01 0.01 0.02 0.00 0.00 0.00 0.00 0.00 0.00 0.00 0.00 0.00 0.00 0.00 0.00 0.00 0.00 0.00 0.00 0.00 0.00 0.00 0.00 0.00 0.00 0.00 0.00 0.00 0.00 0.00 0.00 0.00 0.00 0.00 0.00 0.00 0.00 0.00 0.00 0.00 0.00
0.00 0.03 0.06 0.04 0.00 0.00 0.00 0.01 0.01 0.00 0.00 0.00 0.00 0.00 0.00 0.00 0.00 0.00 0.00 0.00 0.00 0.00 0.00 0.00 0.00 0.00 0.00 0.00 0.00 0.00 0.00 0.00 0.00 0.00 0.00 0.00 0.00 0.00 0.00 0.00 0.00 0.00 0.00 0.00 0.00 0.00 0.00 0.00 0.00
0.00 0.22 0.31 0.13 0.00 0.00 0.00 0.00 0.01 0.00 0.00 0.00 0.00 0.00 0.00 0.00 0.00 0.00 0.00 0.00 0.00 0.00 0.01 0.00 0.00 0.00 0.00 0.00 0.00 0.00 0.00 0.00 0.00 0.00 0.00 0.00 0.00 0.00 0.00 0.00 0.00 0.00 0.00 0.00 0.00 0.00 0.00 0.00 0.00
0.26 0.37 0.21 0.09 0.03 0.01 0.00 0.00 0.00 0.00 0.00 0.00 0.00 0.00 0.00 0.00 0.00 0.00 0.00 0.00 0.00 0.00 0.00 0.00 0.00 0.00 0.00 0.00 0.00 0.00 0.00 0.00 0.00 0.00 0.00 0.00 0.00 0.00 0.00 0.00 0.00 0.00 0.00 0.00 0.00 0.00 0.00 0.00 0.00
0.42 0.10 0.05 0.01 0.01 0.02 0.00 0.00 0.00 0.00 0.00 0.00 0.00 0.00 0.00 0.00 0.00 0.00 0.00 0.00 0.00 0.00 0.00 0.00 0.00 0.00 0.00 0.00 0.00 0.00 0.00 0.00 0.00 0.00 0.00 0.00 0.00 0.00 0.00 0.00 0.00 0.00 0.00 0.00 0.00 0.00 0.00 0.00 0.00
0.15 0.00 0.00 0.00 0.00 0.00 0.00 0.00 0.00 0.00 0.00 0.00 0.00 0.00 0.00 0.00 0.00 0.00 0.00 0.00 0.00 0.00 0.00 0.00 0.00 0.00 0.00 0.00 0.00 0.00 0.00 0.00 0.00 0.00 0.00 0.00 0.00 0.00 0.00 0.00 0.00 0.00 0.00 0.00 0.00 0.00 0.01 0.01 0.03
0.03 0.00 0.00 0.00 0.00 0.00 0.00 0.00 0.00 0.00 0.00 0.00 0.00 0.00 0.00 0.00 0.00 0.00 0.00 0.00 0.00 0.00 0.00 0.00 0.00 0.00 0.00 0.00 0.00 0.00 0.00 0.00 0.00 0.00 0.00 0.00 0.00 0.00 0.00 0.00 0.01 0.00 0.00 0.00 0.00 0.00 0.03 0.03 0.03
0.00 0.00 0.00 0.00 0.00 0.00 0.00 0.00 0.00 0.00 0.00 0.00 0.00 0.00 0.00 0.00 0.00 0.00 0.00 0.00 0.00 0.00 0.00 0.00 0.00 0.00 0.00 0.00 0.00 0.00 0.00 0.00 0.00 0.00 0.00 0.00 0.00 0.00 0.00 0.02 0.07 0.02 0.02 0.00 0.01 0.00 0.01 0.03 0.04
0.00 0.00 0.00 0.00 0.00 0.00 0.00 0.00 0.00 0.00 0.00 0.00 0.00 0.00 0.00 0.00 0.00 0.00 0.00 0.00 0.00 0.00 0.00 0.00 0.00 0.00 0.00 0.00 0.00 0.00 0.00 0.00 0.00 0.00 0.00 0.00 0.00 0.00 0.00 0.02 0.04 0.05 0.09 0.05 0.01 0.00 0.00 0.01 0.02
0.00 0.00 0.00 0.00 0.00 0.00 0.00 0.00 0.00 0.00 0.00 0.00 0.00 0.00 0.00 0.00 0.00 0.00 0.00 0.00 0.00 0.00 0.00 0.00 0.00 0.00 0.00 0.00 0.00 0.00 0.00 0.00 0.00 0.00 0.00 0.00 0.00 0.00 0.00 0.00 0.01 0.04 0.09 0.03 0.01 0.00 0.01 0.01 0.01
0.00 0.00 0.00 0.00 0.00 0.00 0.00 0.00 0.00 0.00 0.00 0.00 0.00 0.00 0.00 0.00 0.00 0.00 0.00 0.00 0.00 0.00 0.00 0.00 0.00 0.00 0.00 0.00 0.00 0.00 0.00 0.00 0.00 0.00 0.00 0.00 0.00 0.00 0.00 0.00 0.02 0.04 0.01 0.00 0.01 0.03 0.04 0.01 0.00
0.00 0.00 0.00 0.00 0.00 0.00 0.00 0.00 0.00 0.00 0.00 0.00 0.00 0.00 0.00 0.00 0.00 0.00 0.00 0.00 0.00 0.00 0.00 0.00 0.00 0.00 0.00 0.00 0.00 0.00 0.00 0.00 0.00 0.00 0.00 0.00 0.00 0.00 0.00 0.00 0.00 0.01 0.05 0.00 0.03 0.04 0.01 0.01 0.00
0.00 0.00 0.00 0.00 0.00 0.00 0.00 0.00 0.00 0.00 0.00 0.00 0.00 0.00 0.00 0.00 0.00 0.00 0.00 0.00 0.00 0.00 0.00 0.00 0.00 0.00 0.00 0.00 0.00 0.00 0.00 0.00 0.00 0.00 0.00 0.00 0.00 0.00 0.00 0.00 0.00 0.00 0.00 0.01 0.03 0.00 0.00 0.00 0.00
0.00 0.00 0.00 0.00 0.00 0.00 0.00 0.00 0.00 0.00 0.00 0.00 0.00 0.00 0.00 0.00 0.00 0.00 0.00 0.00 0.00 0.00 0.00 0.00 0.00 0.00 0.00 0.00 0.00 0.00 0.00 0.00 0.00 0.00 0.00 0.00 0.00 0.00 0.00 0.00 0.00 0.00 0.00 0.00 0.00 0.00 0.00 0.00 0.00
0.00 0.00 0.00 0.00 0.00 0.00 0.00 0.00 0.00 0.00 0.00 0.00 0.00 0.00 0.00 0.00 0.00 0.00 0.00 0.00 0.00 0.00 0.00 0.00 0.00 0.00 0.00 0.00 0.00 0.00 0.00 0.00 0.00 0.00 0.00 0.00 0.00 0.00 0.00 0.00 0.00 0.00 0.00 0.00 0.00 0.00 0.00 0.00 0.00
0.00 0.00 0.00 0.00 0.00 0.00 0.00 0.00 0.00 0.00 0.00 0.00 0.00 0.00 0.00 0.00 0.00 0.00 0.00 0.00 0.00 0.00 0.00 0.00 0.00 0.00 0.00 0.00 0.00 0.00 0.00 0.00 0.00 0.00 0.00 0.00 0.00 0.00 0.00 0.00 0.00 0.00 0.00 0.00 0.00 0.00 0.00 0.00 0.00
0.00 0.00 0.00 0.00 0.00 0.00 0.00 0.00 0.00 0.00 0.00 0.00 0.00 0.00 0.00 0.00 0.00 0.00 0.00 0.00 0.00 0.00 0.00 0.00 0.00 0.00 0.00 0.00 0.00 0.00 0.00 0.00 0.00 0.00 0.00 0.00 0.00 0.00 0.00 0.00 0.00 0.00 0.00 0.00 0.00 0.00 0.00 0.00 0.00
0.00 0.00 0.00 0.00 0.00 0.00 0.00 0.00 0.00 0.00 0.00 0.00 0.00 0.00 0.00 0.00 0.00 0.00 0.00 0.00 0.00 0.00 0.00 0.00 0.00 0.00 0.00 0.00 0.00 0.00 0.00 0.00 0.00 0.00 0.00 0.00 0.00 0.00 0.00 0.00 0.00 0.00 0.00 0.00 0.00 0.00 0.00 0.00 0.00
0.00 0.00 0.00 0.00 0.00 0.00 0.00 0.00 0.00 0.00 0.00 0.00 0.00 0.00 0.00 0.00 0.00 0.00 0.00 0.00 0.00 0.00 0.00 0.00 0.00 0.00 0.00 0.00 0.00 0.00 0.00 0.00 0.00 0.00 0.00 0.00 0.00 0.00 0.00 0.00 0.00 0.00 0.00 0.00 0.00 0.00 0.00 0.00 0.00
0.00 0.00 0.00 0.00 0.00 0.00 0.00 0.00 0.00 0.00 0.00 0.00 0.00 0.00 0.00 0.00 0.00 0.00 0.00 0.00 0.00 0.00 0.00 0.00 0.00 0.00 0.00 0.00 0.00 0.00 0.00 0.00 0.00 0.00 0.00 0.00 0.00 0.00 0.00 0.00 0.00 0.00 0.00 0.00 0.00 0.00 0.00 0.00 0.00
0.00 0.00 0.00 0.00 0.00 0.00 0.00 0.00 0.00 0.00 0.00 0.00 0.00 0.00 0.00 0.00 0.00 0.00 0.00 0.00 0.00 0.00 0.00 0.00 0.00 0.00 0.00 0.00 0.00 0.00 0.00 0.00 0.00 0.00 0.00 0.00 0.00 0.00 0.00 0.00 0.00 0.00 0.00 0.00 0.00 0.00 0.00 0.00 0.00
0.00 0.00 0.00 0.00 0.00 0.00 0.00 0.00 0.00 0.00 0.00 0.00 0.00 0.00 0.00 0.00 0.00 0.00 0.00 0.00 0.00 0.00 0.00 0.00 0.00 0.00 0.00 0.00 0.00 0.00 0.00 0.00 0.00 0.00 0.00 0.00 0.00 0.00 0.00 0.00 0.00 0.00 0.00 0.00 0.00 0.00 0.00 0.00 0.00
0.00 0.00 0.00 0.00 0.00 0.00 0.00 0.00 0.00 0.00 0.00 0.00 0.00 0.00 0.00 0.00 0.00 0.00 0.00 0.00 0.00 0.00 0.00 0.00 0.00 0.00 0.00 0.00 0.00 0.00 0.00 0.00 0.00 0.00 0.00 0.00 0.00 0.00 0.00 0.00 0.00 0.00 0.00 0.00 0.00 0.00 0.00 0.00 0.00
0.00 0.00 0.00 0.00 0.00 0.00 0.00 0.00 0.00 0.00 0.00 0.00 0.00 0.00 0.00 0.00 0.00 0.00 0.00 0.00 0.00 0.00 0.00 0.00 0.00 0.00 0.00 0.00 0.00 0.00 0.00 0.00 0.00 0.00 0.00 0.00 0.00 0.00 0.00 0.00 0.00 0.00 0.00 0.00 0.00 0.00 0.00 0.00 0.00
0.00 0.00 0.00 0.00 0.00 0.00 0.00 0.00 0.00 0.00 0.00 0.00 0.00 0.00 0.00 0.00 0.00 0.00 0.00 0.00 0.00 0.00 0.00 0.00 0.00 0.00 0.00 0.00 0.00 0.00 0.00 0.00 0.00 0.00 0.00 0.00 0.00 0.00 0.00 0.00 0.00 0.00 0.00 0.00 0.00 0.00 0.00 0.00 0.00
0.00 0.00 0.00 0.00 0.00 0.00 0.00 0.00 0.00 0.00 0.00 0.00 0.00 0.00 0.00 0.00 0.00 0.00 0.00 0.00 0.00 0.00 0.00 0.00 0.00 0.00 0.00 0.00 0.00 0.00 0.00 0.00 0.00 0.00 0.00 0.00 0.00 0.00 0.00 0.00 0.00 0.00 0.00 0.00 0.00 0.00 0.00 0.00 0.00
0.00 0.00 0.00 0.00 0.00 0.00 0.00 0.00 0.00 0.00 0.00 0.00 0.00 0.00 0.00 0.00 0.00 0.00 0.00 0.00 0.00 0.00 0.00 0.00 0.00 0.00 0.00 0.00 0.00 0.00 0.00 0.00 0.00 0.00 0.00 0.00 0.00 0.00 0.00 0.00 0.00 0.00 0.00 0.00 0.00 0.00 0.00 0.00 0.00
0.00 0.00 0.00 0.00 0.00 0.00 0.00 0.00 0.00 0.00 0.00 0.00 0.00 0.00 0.00 0.00 0.00 0.00 0.00 0.00 0.00 0.00 0.00 0.00 0.00 0.00 0.00 0.00 0.00 0.00 0.00 0.00 0.00 0.00 0.00 0.00 0.00 0.00 0.00 0.00 0.00 0.00 0.00 0.00 0.00 0.00 0.00 0.00 0.00
MSLP
1011.57 1011.59 1012.03 1012.15 1012.45 1011.74 1010.59 1009.42 1008.62 1008.54 1008.54 1008.65 1008.91 1009.27 1010.77 1011.41 1011.86 1014.10 1014.51 1014.79 1015.02 1015.28 1015.34 1015.42 1015.45 1015.55 1015.78 1016.05 1016.18 1016.39 1016.44 1016.58 1016.74 1016.90 1017.10 1017.30 1017.45 1017.52 1017.56 1017.64 1017.66 1017.69 1017.66 1017.65 1017.78 1017.86 1017.84 1017.74 1017.70
1011.43 1011.69 1011.65 1012.00 1012.08 1011.49 1010.25 1009.12 1008.67 1008.34 1008.63 1008.86 1009.07 1009.68 1010.44 1011.88 1012.33 1013.78 1014.63 1015.00 1015.16 1015.31 1015.59 1015.73 1015.76 1015.90 1016.08 1016.27 1016.41 1016.62 1016.62 1016.88 1017.00 1017.19 1017.38 1017.52 1017.67 1017.73 1017.77 1017.82 1017.88 1017.90 1017.91 1017.92 1017.99 1017.93 1017.92 1017.89 1017.72
1011.05 1011.22 1011.78 1012.63 1011.86 1010.73 1009.54 1008.93 1008.67 1008.82 1008.63 1008.75 1009.15 1009.91 1011.01 1012.47 1013.11 1013.81 1014.29 1014.83 1015.31 1015.48 1015.71 1015.78 1015.90 1016.12 1016.33 1016.48 1016.76 1016.88 1016.97 1017.11 1017.20 1017.38 1017.64 1017.78 1017.86 1017.87 1017.95 1018.12 1018.14 1018.12 1017.96 1017.96 1018.03 1017.96 1017.97 1017.89 1017.86
1010.47 1011.42 1012.49 1012.71 1011.06 1009.52 1008.27 1008.33 1008.25 1008.59 1008.83 1008.97 1009.29 1010.55 1011.67 1012.27 1012.73 1013.30 1014.35 1014.77 1015.36 1015.60 1015.78 1015.84 1015.96 1016.22 1016.47 1016.71 1016.99 1017.08 1017.19 1017.35 1017.42 1017.58 1017.76 1017.87 1017.91 1018.05 1018.16 1018.13 1018.15 1018.19 1018.14 1018.10 1018.15 1018.19 1018.08 1018.01 1018.00
1010.89 1011.64 1012.39 1011.96 1009.49 1007.99 1007.79 1007.65 1007.96 1008.29 1008.86 1009.31 1009.51 1011.09 1011.90 1012.71 1012.83 1013.85 1014.45 1014.85 1015.30 1015.67 1015.86 1015.97 1016.12 1016.37 1016.59 1016.86 1017.09 1017.21 1017.33 1017.42 1017.53 1017.75 1017.90 1017.92 1018.04 1018.15 1018.16 1018.16 1018.09 1018.04 1018.22 1018.19 1018.18 1018.24 1018.14 1018.00 1018.05
1011.73 1011.47 1011.72 1011.07 1008.95 1007.48 1007.19 1007.07 1007.65 1008.25 1009.07 1009.81 1010.32 1011.06 1012.54 1012.95 1013.19 1013.73 1014.37 1014.88 1015.11 1015.60 1015.90 1016.06 1016.27 1016.42 1016.65 1016.96 1017.20 1017.30 1017.36 1017.48 1017.72 1017.86 1017.93 1017.94 1018.07 1018.13 1018.12 1018.10 1018.10 1018.13 1018.28 1018.30 1018.25 1018.31 1018.29 1018.21 1018.15
1012.25 1011.98 1011.01 1009.91 1009.02 1007.72 1006.44 1006.62 1007.16 1007.90 1008.88 1009.48 1009.71 1011.20 1012.85 1013.04 1013.14 1013.58 1014.30 1014.84 1015.10 1015.52 1015.88 1016.11 1016.30 1016.44 1016.69 1016.99 1017.23 1017.33 1017.35 1017.60 1017.78 1017.90 1017.96 1018.04 1018.15 1018.06 1018.07 1018.07 1018.05 1018.09 1018.20 1018.32 1018.32 1018.39 1018.34 1018.11 1018.12
1010.63 1010.77 1010.04 1008.48 1007.22 1006.58 1006.49 1006.66 1006.88 1007.17 1008.60 1009.31 1009.45 1010.98 1012.09 1012.45 1012.83 1013.41 1014.29 1014.88 1015.30 1015.68 1015.93 1016.19 1016.32 1016.40 1016.73 1017.05 1017.22 1017.26 1017.41 1017.62 1017.83 1017.93 1017.89 1017.95 1017.93 1018.01 1018.11 1018.02 1017.98 1018.10 1018.19 1018.30 1018.21 1018.31 1018.24 1018.02 1018.13
1010.20 1010.01 1008.52 1007.10 1005.96 1005.59 1006.14 1006.40 1007.67 1007.34 1007.99 1008.88 1008.92 1009.68 1010.77 1011.77 1012.57 1013.50 1014.40 1015.06 1015.45 1015.84 1016.10 1016.22 1016.34 1016.55 1016.85 1017.13 1017.21 1017.23 1017.44 1017.59 1017.75 1017.70 1017.72 1017.83 1017.99 1018.13 1018.20 1018.15 1018.06 1017.99 1018.09 1018.14 1018.02 1018.09 1018.13 1018.01 1018.00
1009.25 1008.42 1006.80 1005.22 1004.79 1004.82 1004.68 1005.31 1006.48 1007.47 1008.34 1008.79 1009.16 1010.23 1011.33 1011.80 1012.41 1013.24 1014.07 1014.78 1015.25 1015.70 1015.98 1016.13 1016.23 1016.50 1016.88 1016.93 1017.12 1017.22 1017.37 1017.48 1017.60 1017.58 1017.67 1017.76 1017.91 1018.09 1018.22 1018.10 1017.83 1017.87 1018.08 1018.05 1018.02 1018.01 1017.94 1018.01 1018.20
1007.37 1006.51 1004.93 1003.99 1003.69 1004.54 1004.50 1005.22 1005.66 1006.69 1007.83 1007.46 1008.55 1009.86 1010.91 1011.67 1012.38 1012.91 1013.65 1013.96 1014.36 1014.98 1015.52 1015.83 1016.07 1016.31 1016.62 1016.72 1016.96 1017.17 1017.20 1017.36 1017.47 1017.44 1017.52 1017.61 1017.65 1018.05 1018.03 1018.12 1017.76 1017.98 1018.13 1018.17 1018.04 1018.05 1017.89 1017.90 1017.88
1006.31 1004.90 1003.65 1002.78 1002.49 1003.40 1004.64 1004.50 1005.40 1005.23 1005.89 1006.97 1007.73 1008.60 1009.92 1011.11 1011.85 1012.55 1013.13 1013.86 1014.33 1014.61 1014.82 1015.31 1015.55 1015.90 1016.30 1016.49 1016.57 1016.77 1017.03 1017.18 1017.32 1017.16 1017.21 1017.46 1017.65 1017.77 1017.84 1017.88 1017.99 1018.11 1018.21 1017.98 1018.07 1018.24 1017.97 1017.83 1017.78
1005.37 1004.25 1002.75 1002.04 1001.76 1002.69 1003.51 1003.54 1004.12 1005.15 1005.69 1007.08 1007.94 1008.99 1009.75 1010.33 1011.21 1011.95 1012.18 1012.94 1013.63 1014.16 1014.31 1014.79 1015.28 1015.61 1015.75 1016.13 1016.45 1016.59 1016.69 1016.82 1016.84 1016.94 1017.00 1017.19 1017.50 1017.58 1017.38 1017.45 1017.98 1018.05 1017.87 1017.70 1018.00 1018.09 1018.17 1018.04 1017.81
1003.99 1003.76 1002.68 1001.77 1001.81 1001.77 1002.78 1003.75 1003.80 1004.87 1005.42 1006.74 1007.58 1008.47 1009.20 1009.91 1010.55 1011.42 1012.23 1012.64 1013.11 1013.49 1013.80 1014.26 1014.79 1014.98 1015.25 1015.77 1016.17 1016.20 1016.18 1016.29 1016.45 1016.52 1016.58 1016.88 1017.19 1017.09 1017.23 1017.43 1017.65 1017.63 1017.74 1017.85 1017.91 1018.12 1018.07 1017.99 1017.61
1003.38 1003.48 1002.72 1002.01 1001.27 1001.71 1002.41 1003.81 1003.94 1004.48 1005.37 1006.35 1007.22 1008.15 1008.80 1009.45 1010.15 1010.55 1011.32 1011.96 1012.18 1012.71 1013.04 1013.64 1014.22 1014.51 1015.07 1015.36 1015.51 1015.69 1015.61 1015.75 1015.99 1016.11 1016.27 1016.54 1016.76 1016.73 1016.90 1017.07 1017.21 1017.27 1017.41 1017.59 1017.86 1017.85 1017.93 1017.78 1017.67
1003.45 1003.36 1002.90 1001.29 1001.05 1002.02 1002.26 1003.76 1004.12 1004.36 1005.31 1006.44 1006.99 1007.54 1008.31 1008.93 1009.38 1010.07 1010.62 1011.12 1011.67 1012.10 1012.65 1013.16 1013.70 1014.26 1014.67 1015.04 1015.02 1015.32 1015.52 1015.66 1015.67 1015.70 1015.96 1016.14 1016.47 1016.64 1016.82 1017.06 1017.15 1017.10 1017.17 1017.42 1017.78 1018.05 1018.13 1018.06 1018.10
1003.90 1003.56 1002.94 1001.50 1001.00 1001.27 1002.14 1003.46 1003.95 1004.46 1004.97 1006.04 1006.56 1007.03 1007.43 1008.20 1009.07 1009.46 1009.96 1010.52 1011.06 1011.54 1012.03 1012.73 1013.25 1013.84 1014.25 1014.62 1014.61 1014.71 1015.02 1015.28 1015.65 1015.56 1015.67 1015.91 1016.17 1016.34 1016.58 1016.91 1017.00 1017.02 1017.34 1017.50 1017.76 1017.98 1018.06 1018.24 1018.27
1003.98 1003.71 1002.73 1001.82 1001.00 1001.04 1002.08 1002.53 1003.54 1004.31 1004.77 1005.52 1006.10 1006.45 1006.92 1007.33 1007.61 1008.52 1009.25 1009.93 1010.52 1010.98 1011.39 1011.81 1012.64 1013.28 1013.88 1014.18 1014.41 1014.59 1014.93 1015.01 1015.20 1015.35 1015.47 1015.58 1015.91 1016.17 1016.48 1016.69 1016.79 1017.05 1017.47 1017.67 1017.81 1018.08 1018.17 1018.30 1018.30
1003.63 1003.39 1002.83 1001.22 1000.91 1001.90 1001.34 1002.19 1003.07 1003.81 1004.74 1005.16 1005.60 1006.04 1006.48 1006.40 1006.90 1007.77 1008.58 1009.28 1010.02 1010.64 1011.01 1011.35 1012.03 1012.73 1013.41 1014.04 1014.44 1014.77 1014.94 1015.00 1015.06 1015.06 1015.12 1015.31 1015.55 1015.86 1016.25 1016.51 1016.63 1016.90 1017.28 1017.47 1017.87 1018.19 1018.39 1018.45 1018.43
1003.12 1002.88 1002.08 1001.50 1000.98 1001.46 1002.11 1001.80 1002.24 1003.06 1003.23 1003.40 1004.37 1005.24 1005.66 1006.02 1006.50 1006.99 1007.88 1008.57 1009.14 1009.75 1010.34 1010.87 1011.42 1012.24 1012.95 1013.24 1013.75 1014.18 1014.43 1014.53 1014.58 1014.76 1014.93 1014.97 1015.28 1015.45 1015.93 1016.19 1016.64 1016.79 1017.18 1017.59 1017.86 1018.09 1018.53 1018.55 1018.37
1002.30 1002.19 1001.54 1001.95 1001.36 1001.23 1001.94 1002.63 1003.01 1003.31 1003.41 1003.63 1003.76 1003.90 1004.53 1004.86 1005.49 1006.21 1006.89 1007.49 1008.08 1008.75 1009.47 1010.07 1010.75 1011.51 1012.19 1012.76 1013.47 1014.05 1014.39 1014.57 1014.69 1014.78 1014.80 1014.79 1014.90 1015.34 1015.64 1015.89 1016.22 1016.63 1017.01 1017.47 1017.65 1017.87 1018.17 1018.51 1018.52
1001.68 1001.12 1001.56 1002.04 1002.23 1001.68 1001.47 1002.71 1003.06 1003.01 1003.08 1003.17 1003.35 1003.51 1003.62 1004.14 1004.57 1004.89 1005.56 1006.41 1007.05 1007.56 1008.43 1009.17 1009.95 1010.72 1011.45 1012.10 1012.79 1013.42 1013.83 1014.24 1014.18 1014.23 1014.30 1014.39 1014.61 1015.04 1015.35 1015.67 1016.04 1016.28 1016.83 1017.20 1017.42 1017.69 1017.94 1018.33 1018.63
1000.25 1001.21 1001.51 1002.10 1002.47 1002.57 1002.19 1002.61 1001.96 1001.95 1002.46 1002.47 1002.25 1002.20 1002.25 1002.69 1003.33 1003.83 1004.25 1004.74 1005.40 1006.56 1007.52 1008.25 1008.95 1009.92 1010.62 1011.29 1011.86 1012.57 1013.16 1013.42 1013.41 1013.79 1014.11 1014.35 1014.51 1014.63 1014.94 1015.47 1015.89 1016.28 1016.56 1016.92 1017.25 1017.71 1017.93 1018.18 1018.55
1000.35 1001.05 1001.38 1001.92 1002.67 1002.76 1002.16 1002.14 1001.33 1000.33 1000.19 1000.52 1000.80 1000.75 1000.78 1001.52 1002.17 1002.71 1002.84 1003.83 1004.79 1005.68 1006.66 1007.55 1008.39 1009.16 1009.82 1010.49 1011.08 1011.59 1012.21 1012.75 1013.14 1013.54 1013.99 1014.26 1014.34 1014.54 1014.68 1015.15 1015.50 1015.90 1016.38 1016.76 1017.10 1017.46 1017.80 1018.10 1018.33
999.87 1001.02 1002.06 1002.28 1002.36 1001.53 1001.51 1001.40 999.61 998.46 998.32 998.19 998.84 999.02 999.41 1000.10 1000.92 1001.72 1002.62 1003.33 1004.08 1004.86 1005.75 1006.73 1007.65 1008.47 1009.15 1009.69 1010.21 1010.79 1011.36 1011.87 1012.44 1013.00 1013.44 1013.80 1014.07 1014.35 1014.58 1015.04 1015.40 1015.76 1015.97 1016.28 1016.57 1017.11 1017.49 1017.88 1018.18
998.92 999.95 1000.67 1001.86 1001.92 1001.76 1001.06 999.95 997.84 997.23 996.62 996.43 996.66 997.15 998.27 999.00 999.57 1000.25 1000.93 1001.70 1002.49 1003.51 1004.62 1005.61 1006.65 1007.59 1008.44 1009.05 1009.55 1010.03 1010.58 1011.05 1011.71 1012.31 1012.73 1012.95 1013.20 1013.60 1014.01 1014.57 1014.87 1015.09 1015.41 1015.84 1016.39 1017.01 1017.40 1017.63 1017.98
997.78 998.52 999.77 1001.18 1001.45 1001.23 999.96 998.68 997.09 996.39 996.13 995.72 995.82 996.60 997.12 997.62 998.35 998.59 999.44 1000.17 1001.01 1002.32 1003.34 1004.24 1005.51 1006.56 1007.39 1007.99 1008.61 1009.23 1009.81 1010.34 1011.04 1011.56 1012.02 1012.22 1012.67 1013.11 1013.66 1014.08 1014.47 1014.71 1015.10 1015.57 1016.34 1016.73 1017.12 1017.35 1017.60
996.29 997.63 999.25 999.96 1000.35 1000.45 999.31 997.87 996.15 995.89 995.77 995.49 995.59 995.61 995.65 996.24 996.94 997.39 998.37 998.95 999.88 1000.66 1001.85 1003.26 1004.24 1005.11 1006.06 1007.00 1007.63 1008.25 1008.92 1009.56 1010.32 1010.97 1011.37 1011.80 1012.17 1012.62 1013.20 1013.58 1014.03 1014.48 1014.88 1015.32 1015.85 1016.31 1016.64 1017.05 1017.33
995.79 996.39 997.33 998.21 999.05 999.07 998.71 995.60 995.18 995.17 995.06 994.85 994.47 994.25 994.33 994.62 995.52 996.33 996.93 997.72 998.38 999.63 1001.00 1002.27 1003.52 1004.52 1005.48 1006.26 1006.93 1007.50 1008.08 1008.82 1009.55 1010.13 1010.57 1011.01 1011.54 1011.98 1012.35 1012.90 1013.56 1013.97 1014.48 1015.00 1015.52 1015.91 1016.29 1016.77 1017.03
994.19 994.88 996.16 997.26 998.08 997.99 997.19 992.81 993.88 994.18 994.30 994.14 993.92 993.03 992.97 994.01 994.82 995.36 995.90 996.70 998.07 999.28 1000.18 1001.16 1002.43 1003.46 1004.33 1005.17 1006.02 1006.61 1007.25 1008.02 1008.71 1009.12 1009.67 1010.22 1010.60 1011.02 1011.46 1012.16 1012.83 1013.37 1013.95 1014.47 1015.05 1015.57 1015.82 1016.25 1016.79
Thickness
5793 5791 5790 5779 5759 5759 5758 5773 5793 5787 5788 5801 5801 5796 5778 5781 5777 5746 5773 5770 5769 5769 5768 5767 5767 5766 5765 5763 5762 5760 5761 5759 5756 5754 5752 5751 5750 5750 5752 5751 5751 5751 5751 5751 5749 5748 5748 5750 5751
5795 5793 5787 5773 5754 5742 5756 5789 5783 5794 5797 5805 5803 5797 5787 5771 5785 5773 5771 5772 5769 5769 5767 5765 5765 5764 5764 5763 5763 5761 5761 5758 5756 5753 5752 5751 5750 5751 5752 5750 5750 5751 5750 5749 5748 5749 5749 5750 5751
5799 5797 5777 5756 5751 5746 5763 5788 5793 5794 5805 5803 5796 5799 5785 5767 5776 5776 5779 5776 5770 5770 5768 5767 5766 5764 5763 5763 5762 5760 5759 5757 5755 5754 5751 5750 5751 5752 5751 5749 5749 5749 5750 5750 5749 5750 5750 5752 5751
5798 5789 5770 5754 5754 5777 5792 5796 5804 5796 5803 5806 5800 5779 5786 5788 5781 5785 5780 5775 5772 5770 5769 5768 5767 5765 5764 5763 5761 5759 5758 5756 5755 5754 5753 5752 5752 5751 5750 5751 5750 5749 5749 5750 5749 5749 5751 5752 5751
5795 5779 5754 5748 5772 5795 5804 5809 5810 5797 5797 5795 5799 5777 5776 5784 5788 5783 5779 5777 5773 5772 5769 5768 5767 5765 5764 5762 5760 5759 5758 5756 5755 5754 5753 5753 5752 5751 5752 5752 5753 5752 5748 5749 5749 5749 5751 5753 5753
5767 5759 5744 5741 5769 5801 5806 5816 5811 5802 5799 5792 5787 5781 5772 5787 5784 5783 5781 5778 5776 5773 5769 5768 5766 5765 5764 5762 5760 5759 5758 5757 5755 5754 5753 5754 5754 5753 5753 5754 5753 5753 5749 5748 5748 5748 5750 5749 5752
5758 5755 5758 5762 5758 5784 5805 5819 5804 5802 5793 5790 5801 5774 5774 5781 5787 5787 5783 5780 5776 5772 5770 5769 5767 5766 5764 5762 5760 5760 5759 5757 5755 5755 5755 5755 5754 5756 5754 5755 5755 5754 5752 5750 5749 5749 5750 5751 5753
5776 5770 5770 5783 5787 5789 5808 5814 5820 5812 5795 5808 5808 5773 5768 5785 5792 5790 5783 5779 5776 5772 5771 5770 5769 5769 5765 5762 5762 5762 5761 5759 5756 5756 5757 5757 5758 5757 5756 5756 5758 5757 5755 5751 5751 5750 5751 5753 5755
5795 5768 5772 5787 5802 5802 5816 5810 5812 5825 5807 5804 5810 5802 5800 5797 5795 5785 5778 5774 5773 5772 5771 5770 5769 5768 5766 5764 5764 5764 5762 5761 5759 5761 5761 5761 5760 5759 5758 5758 5759 5761 5757 5755 5755 5754 5755 5756 5758
5784 5776 5794 5819 5821 5818 5822 5817 5814 5808 5800 5799 5801 5800 5797 5796 5790 5781 5775 5771 5772 5770 5771 5772 5771 5770 5768 5767 5768 5768 5766 5765 5764 5765 5765 5765 5764 5762 5761 5761 5763 5764 5760 5758 5758 5758 5760 5760 5760
5800 5791 5817 5830 5834 5825 5822 5815 5824 5807 5794 5810 5800 5796 5796 5792 5785 5782 5779 5781 5780 5778 5776 5776 5774 5773 5772 5771 5771 5771 5771 5769 5768 5769 5770 5769 5769 5766 5766 5765 5766 5767 5763 5761 5761 5761 5764 5764 5765
5795 5820 5835 5845 5848 5831 5815 5827 5813 5824 5822 5822 5816 5813 5803 5791 5787 5785 5783 5782 5781 5781 5782 5781 5779 5778 5776 5775 5776 5775 5774 5773 5773 5775 5775 5774 5773 5772 5770 5769 5768 5767 5765 5765 5764 5763 5764 5765 5765
5808 5819 5841 5852 5853 5840 5835 5825 5823 5822 5832 5824 5818 5810 5803 5800 5795 5793 5794 5791 5788 5785 5787 5786 5784 5783 5781 5779 5778 5778 5778 5778 5778 5778 5778 5777 5775 5775 5777 5776 5771 5767 5767 5769 5767 5766 5764 5764 5765
5828 5825 5833 5849 5846 5850 5831 5827 5832 5827 5836 5818 5815 5810 5808 5802 5800 5796 5792 5791 5792 5792 5791 5791 5789 5788 5787 5785 5781 5782 5782 5783 5782 5782 5783 5781 5781 5782 5781 5778 5774 5773 5772 5770 5770 5767 5765 5765 5767
5831 5814 5826 5834 5847 5840 5844 5812 5818 5834 5834 5818 5809 5808 5807 5806 5804 5801 5800 5797 5800 5799 5800 5797 5795 5794 5790 5790 5787 5786 5786 5785 5785 5786 5786 5784 5785 5786 5784 5783 5780 5779 5776 5773 5769 5767 5767 5767 5766
5814 5815 5792 5833 5845 5841 5832 5790 5823 5837 5828 5815 5814 5810 5807 5807 5808 5807 5808 5806 5806 5805 5803 5803 5803 5798 5796 5794 5793 5790 5790 5789 5790 5791 5790 5789 5786 5785 5785 5783 5782 5780 5778 5775 5772 5769 5765 5764 5762
5793 5779 5795 5813 5842 5841 5824 5800 5826 5834 5827 5815 5816 5815 5814 5810 5812 5813 5813 5812 5810 5810 5809 5807 5806 5802 5800 5798 5797 5796 5794 5794 5791 5793 5793 5791 5789 5788 5787 5785 5783 5782 5779 5776 5774 5770 5767 5763 5761
5774 5786 5799 5803 5835 5840 5818 5816 5825 5829 5825 5819 5817 5819 5818 5817 5821 5820 5818 5819 5818 5816 5817 5816 5811 5808 5804 5802 5800 5799 5797 5796 5795 5795 5794 5793 5792 5790 5787 5785 5784 5780 5777 5774 5772 5768 5767 5763 5761
5799 5795 5793 5821 5843 5820 5827 5824 5822 5826 5822 5820 5822 5821 5820 5825 5831 5830 5825 5823 5821 5819 5817 5816 5813 5811 5807 5801 5797 5795 5794 5797 5798 5797 5797 5797 5795 5791 5789 5786 5784 5781 5777 5774 5770 5765 5761 5758 5757
5797 5793 5800 5817 5836 5823 5814 5826 5831 5830 5833 5836 5830 5828 5827 5828 5830 5832 5830 5827 5826 5823 5822 5820 5816 5812 5808 5806 5804 5802 5800 5801 5802 5800 5799 5799 5797 5795 5791 5788 5783 5781 5776 5772 5768 5764 5758 5756 5756
5794 5792 5805 5801 5821 5833 5817 5803 5811 5822 5829 5832 5836 5841 5841 5836 5834 5834 5834 5833 5832 5829 5827 5826 5821 5816 5812 5810 5806 5802 5801 5801 5799 5799 5800 5800 5799 5795 5791 5788 5784 5780 5776 5771 5769 5765 5760 5753 5752
5773 5819 5817 5807 5795 5782 5822 5763 5796 5813 5814 5822 5831 5837 5844 5841 5843 5845 5843 5838 5837 5837 5835 5832 5827 5822 5818 5815 5810 5805 5800 5796 5801 5802 5805 5803 5800 5794 5790 5787 5783 5781 5777 5772 5770 5767 5761 5755 5746
5803 5814 5809 5806 5792 5793 5796 5769 5791 5817 5804 5813 5832 5845 5853 5854 5852 5848 5851 5852 5851 5846 5840 5837 5834 5828 5824 5820 5817 5811 5805 5806 5807 5806 5803 5800 5798 5795 5792 5786 5782 5781 5779 5775 5771 5764 5759 5754 5747
5820 5803 5802 5801 5781 5745 5787 5787 5776 5815 5827 5835 5840 5853 5862 5859 5859 5855 5862 5859 5853 5851 5845 5839 5834 5830 5828 5824 5821 5816 5811 5808 5804 5803 5800 5798 5797 5795 5791 5786 5785 5782 5779 5774 5769 5764 5758 5752 5747
5802 5777 5739 5743 5742 5741 5784 5773 5808 5840 5851 5856 5854 5860 5867 5868 5864 5860 5855 5855 5853 5849 5846 5841 5836 5830 5829 5827 5824 5821 5817 5814 5808 5804 5801 5798 5795 5791 5790 5787 5785 5782 5779 5774 5770 5764 5758 5752 5745
5785 5785 5750 5719 5724 5747 5783 5759 5808 5854 5867 5875 5878 5875 5870 5869 5871 5870 5869 5864 5862 5858 5852 5845 5838 5832 5828 5826 5824 5822 5820 5817 5812 5808 5806 5802 5799 5796 5795 5791 5788 5784 5781 5775 5768 5762 5757 5752 5744
5792 5769 5797 5757 5765 5748 5770 5795 5831 5851 5855 5868 5872 5869 5869 5875 5876 5882 5880 5876 5871 5863 5858 5853 5844 5838 5833 5830 5827 5823 5821 5818 5814 5811 5808 5806 5802 5800 5797 5794 5790 5786 5781 5776 5768 5762 5756 5752 5746
5805 5803 5768 5745 5738 5733 5759 5778 5797 5829 5845 5853 5862 5870 5877 5880 5883 5889 5881 5881 5878 5875 5868 5860 5854 5847 5842 5836 5832 5828 5823 5819 5816 5812 5808 5807 5804 5802 5798 5795 5790 5785 5781 5777 5770 5763 5758 5751 5745
5793 5782 5781 5782 5765 5752 5734 5783 5828 5835 5846 5854 5868 5879 5888 5890 5886 5888 5888 5889 5892 5881 5871 5863 5855 5849 5843 5839 5835 5830 5825 5820 5816 5814 5812 5809 5807 5805 5802 5797 5790 5786 5781 5776 5771 5765 5758 5749 5743
5810 5795 5781 5766 5748 5756 5781 5804 5857 5853 5858 5863 5870 5888 5898 5896 5887 5887 5893 5890 5885 5875 5872 5868 5860 5853 5849 5846 5839 5834 5829 5822 5817 5817 5816 5812 5808 5807 5804 5799 5792 5787 5782 5776 5770 5763 5759 5751 5742